Hourly Weather Dzhusaly

Today, 9 May, Sunday

Time Temperature Precipitation Wind Pressure Humidity
00:00 +20°C° 0 mm 6 mps 749 mmHg 52%
01:00 +19°C° 0 mm 5 mps 749 mmHg 55%
02:00 +17°C° 0 mm 5 mps 749 mmHg 58%
03:00 +18°C° 0 mm 4 mps 749 mmHg 61%
04:00 +17°C° 0 mm 4 mps 749 mmHg 63%
05:00 +16°C° 0 mm 5 mps 750 mmHg 58%
06:00 +17°C° 0 mm 6 mps 750 mmHg 52%
07:00 +17°C° 0 mm 8 mps 750 mmHg 46%
08:00 +18°C° 0 mm 8 mps 750 mmHg 44%
09:00 +20°C° 0 mm 8 mps 750 mmHg 42%
10:00 +21°C° 0 mm 8 mps 751 mmHg 39%
11:00 +22°C° 0 mm 8 mps 751 mmHg 36%
12:00 +23°C° 0 mm 8 mps 750 mmHg 33%
13:00 +24°C° 0 mm 8 mps 750 mmHg 30%
14:00 +26°C° 0 mm 9 mps 750 mmHg 27%
15:00 +26°C° 0 mm 9 mps 751 mmHg 25%
16:00 +26°C° 0 mm 9 mps 751 mmHg 22%
17:00 +24°C° 0 mm 7 mps 751 mmHg 23%
18:00 +24°C° 0 mm 6 mps 751 mmHg 24%
19:00 +23°C° 0 mm 4 mps 751 mmHg 25%
20:00 +22°C° 0 mm 4 mps 751 mmHg 26%
21:00 +22°C° 0 mm 4 mps 751 mmHg 28%
22:00 +21°C° 0 mm 4 mps 751 mmHg 29%
23:00 +20°C° 0 mm 4 mps 751 mmHg 33%

Tomorrow, 10 May, Monday

Time Temperature Precipitation Wind Pressure Humidity
00:00 +19°C° 0 mm 4 mps 751 mmHg 36%
01:00 +18°C° 0 mm 4 mps 751 mmHg 40%
02:00 +18°C° 0 mm 4 mps 751 mmHg 44%
03:00 +17°C° 0 mm 4 mps 751 mmHg 47%
04:00 +17°C° 0 mm 4 mps 751 mmHg 51%
05:00 +18°C° 0 mm 4 mps 751 mmHg 45%
06:00 +19°C° 0 mm 3 mps 752 mmHg 40%
07:00 +21°C° 0 mm 3 mps 752 mmHg 34%
08:00 +22°C° 0 mm 4 mps 752 mmHg 31%
09:00 +25°C° 0 mm 5 mps 752 mmHg 27%
10:00 +26°C° 0 mm 6 mps 752 mmHg 23%
11:00 +27°C° 0 mm 6 mps 751 mmHg 21%
12:00 +28°C° 0 mm 6 mps 751 mmHg 19%
13:00 +28°C° 0 mm 6 mps 751 mmHg 18%
14:00 +28°C° 0 mm 6 mps 751 mmHg 17%
15:00 +29°C° 0 mm 7 mps 751 mmHg 17%
16:00 +29°C° 0 mm 7 mps 750 mmHg 17%
17:00 +28°C° 0 mm 7 mps 750 mmHg 20%
18:00 +27°C° 0 mm 7 mps 751 mmHg 22%
19:00 +26°C° 0 mm 6 mps 751 mmHg 25%
20:00 +23°C° 0 mm 6 mps 751 mmHg 33%
21:00 +22°C° 0 mm 6 mps 751 mmHg 40%
22:00 +20°C° 0 mm 5 mps 752 mmHg 48%
23:00 +20°C° 0 mm 5 mps 752 mmHg 51%

Day after tomorrow, 11 May, Tuesday

Time Temperature Precipitation Wind Pressure Humidity
00:00 +19°C° 0 mm 4 mps 752 mmHg 54%
01:00 +18°C° 0 mm 4 mps 752 mmHg 57%
02:00 +17°C° 0 mm 4 mps 752 mmHg 61%
03:00 +15°C° 0 mm 4 mps 752 mmHg 65%
04:00 +14°C° 0 mm 4 mps 752 mmHg 69%
05:00 +15°C° 0 mm 5 mps 753 mmHg 65%
06:00 +15°C° 0 mm 5 mps 753 mmHg 62%
07:00 +16°C° 0 mm 6 mps 753 mmHg 59%
08:00 +17°C° 0 mm 5 mps 753 mmHg 54%
09:00 +20°C° 0 mm 5 mps 753 mmHg 49%
10:00 +21°C° 0 mm 4 mps 754 mmHg 44%
11:00 +22°C° 0 mm 5 mps 753 mmHg 43%
12:00 +23°C° 0 mm 6 mps 753 mmHg 41%
13:00 +24°C° 0 mm 7 mps 753 mmHg 39%
14:00 +24°C° 0 mm 6 mps 753 mmHg 37%
15:00 +26°C° 0 mm 6 mps 753 mmHg 34%
16:00 +26°C° 0 mm 6 mps 753 mmHg 32%
17:00 +26°C° 0 mm 6 mps 753 mmHg 33%
18:00 +26°C° 0 mm 6 mps 753 mmHg 34%
19:00 +24°C° 0 mm 6 mps 753 mmHg 35%
20:00 +25°C° 0 mm 5 mps 754 mmHg 35%
21:00 +25°C° 0 mm 5 mps 754 mmHg 35%
22:00 +25°C° 0 mm 5 mps 754 mmHg 35%
23:00 +22°C° 0 mm 6 mps 754 mmHg 35%

12 May, Wednesday

Time Temperature Precipitation Wind Pressure Humidity
00:00 +21°C° 0 mm 7 mps 755 mmHg 34%
01:00 +20°C° 0 mm 7 mps 755 mmHg 34%
02:00 +18°C° 0 mm 7 mps 755 mmHg 35%
03:00 +17°C° 0 mm 6 mps 755 mmHg 35%
04:00 +16°C° 0 mm 5 mps 756 mmHg 36%
05:00 +17°C° 0 mm 6 mps 756 mmHg 35%
06:00 +17°C° 0 mm 7 mps 756 mmHg 34%
07:00 +18°C° 0 mm 7 mps 757 mmHg 33%
08:00 +20°C° 0 mm 7 mps 757 mmHg 29%
09:00 +22°C° 0 mm 7 mps 757 mmHg 25%
10:00 +24°C° 0 mm 7 mps 757 mmHg 21%
11:00 +26°C° 0 mm 6 mps 756 mmHg 18%
12:00 +27°C° 0 mm 6 mps 756 mmHg 15%
13:00 +28°C° 0 mm 6 mps 756 mmHg 13%
14:00 +28°C° 0 mm 6 mps 756 mmHg 12%
15:00 +28°C° 0 mm 6 mps 755 mmHg 11%
16:00 +29°C° 0 mm 6 mps 755 mmHg 11%
17:00 +28°C° 0 mm 5 mps 755 mmHg 12%
18:00 +27°C° 0 mm 5 mps 755 mmHg 13%
19:00 +26°C° 0 mm 4 mps 755 mmHg 14%
20:00 +25°C° 0 mm 4 mps 755 mmHg 16%
21:00 +23°C° 0 mm 4 mps 755 mmHg 18%
22:00 +21°C° 0 mm 5 mps 755 mmHg 20%
23:00 +21°C° 0 mm 5 mps 754 mmHg 22%

13 May, Thursday

Time Temperature Precipitation Wind Pressure Humidity
00:00 +20°C° 0 mm 5 mps 754 mmHg 24%
01:00 +19°C° 0 mm 5 mps 754 mmHg 27%
02:00 +17°C° 0 mm 5 mps 754 mmHg 29%
03:00 +16°C° 0 mm 5 mps 754 mmHg 32%
04:00 +16°C° 0 mm 5 mps 754 mmHg 34%
05:00 +17°C° 0 mm 5 mps 754 mmHg 32%
06:00 +19°C° 0 mm 6 mps 754 mmHg 30%
07:00 +20°C° 0 mm 6 mps 755 mmHg 27%
08:00 +22°C° 0 mm 6 mps 755 mmHg 25%
09:00 +24°C° 0 mm 7 mps 755 mmHg 22%
10:00 +26°C° 0 mm 7 mps 754 mmHg 19%
11:00 +26°C° 0 mm 7 mps 754 mmHg 18%
12:00 +27°C° 0 mm 7 mps 754 mmHg 17%
13:00 +27°C° 0 mm 7 mps 754 mmHg 16%
14:00 +27°C° 0 mm 7 mps 754 mmHg 16%
15:00 +27°C° 0 mm 7 mps 754 mmHg 15%
16:00 +27°C° 0 mm 8 mps 754 mmHg 15%
17:00 +26°C° 0 mm 7 mps 754 mmHg 16%
18:00 +26°C° 0 mm 6 mps 754 mmHg 17%
19:00 +24°C° 0 mm 6 mps 754 mmHg 18%
20:00 +23°C° 0 mm 5 mps 754 mmHg 21%
21:00 +22°C° 0 mm 5 mps 754 mmHg 24%
22:00 +21°C° 0 mm 4 mps 754 mmHg 27%
23:00 +20°C° 0 mm 5 mps 753 mmHg 33%

14 May, Friday

Time Temperature Precipitation Wind Pressure Humidity
00:00 +20°C° 0 mm 5 mps 753 mmHg 38%
01:00 +19°C° 0 mm 6 mps 753 mmHg 44%
02:00 +19°C° 0 mm 6 mps 753 mmHg 45%
03:00 +17°C° 0 mm 6 mps 753 mmHg 46%
04:00 +17°C° 0 mm 7 mps 753 mmHg 47%
05:00 +17°C° 0 mm 7 mps 753 mmHg 45%
06:00 +18°C° 0 mm 8 mps 754 mmHg 43%
07:00 +20°C° 0 mm 8 mps 754 mmHg 41%
08:00 +22°C° 0 mm 8 mps 754 mmHg 34%
09:00 +24°C° 0 mm 8 mps 754 mmHg 26%
10:00 +27°C° 0 mm 8 mps 754 mmHg 19%
11:00 +28°C° 0 mm 8 mps 754 mmHg 17%
12:00 +29°C° 0 mm 9 mps 754 mmHg 14%
13:00 +31°C° 0 mm 9 mps 753 mmHg 11%
14:00 +31°C° 0 mm 9 mps 753 mmHg 12%
15:00 +31°C° 0 mm 9 mps 753 mmHg 12%
16:00 +31°C° 0 mm 9 mps 753 mmHg 12%
17:00 +29°C° 0 mm 9 mps 753 mmHg 13%
18:00 +28°C° 0 mm 8 mps 753 mmHg 14%
19:00 +28°C° 0 mm 7 mps 753 mmHg 14%
20:00 +27°C° 0 mm 8 mps 753 mmHg 16%
21:00 +26°C° 0 mm 8 mps 753 mmHg 17%
22:00 +24°C° 0 mm 9 mps 753 mmHg 19%
23:00 +23°C° 0 mm 8 mps 753 mmHg 21%
Show more